Terug naar catalogus

STARLINK-35753

ActiefCommunicatieVLEO
NORAD 66232·PAYLOAD·🇺🇸 United States

Gelanceerd Oct 28, 2025 vanaf Vandenberg Space Force Base

Loading…

Volgende Passages (komende 24 uur)

TLE

VersSource: CelesTrak SupGP

Epoch: Sep 15, 2026, 04:02 UTC

1 66232C 25244AC  26258.16854167 -.00024733  00000+0 -73091-3 0  2588
2 66232  53.1587  68.3732 0001169  91.8345 123.6829 15.34395383    12

Volg STARLINK-35753 in realtime met AllMySat

Download on the App Store